Regional Weather Roundup
Issued by NWS

Home | Current Version | Previous Version | Graphics & Text | Print | Product List | Glossary On
Versions: 1 2 3 4 5 6 7 8 9 10 11 12 13 14 15 16 17 18 19 20 21 22 23 24 25 26 27 28 29 30 31 32 33 34 35 36 37 38 39 40 41 42 43 44 45 46 47 48 49 50
000
ASUS45 KSLC 231210
RWRUT

UTAH REGIONAL WEATHER ROUNDUP
NATIONAL WEATHER SERVICE SALT LAKE CITY UT
500 AM MST THU NOV 23 2017

UTZ001>011-023>025-231300-

NORTHERN UTAH

CITY           SKY/WX    TMP DP  RH WIND       PRES   REMARKS
BRIGHAM CITY   PTCLDY    37  34  89 CALM      30.30F
HILL AFB       CLEAR     46  38  72 E15       30.29F
LOGAN          CLEAR     35  32  88 S3        30.30F
OGDEN          PTCLDY    44  38  79 S8        30.29S
SALT LAKE CITY PTCLDY    48  40  73 E9        30.28F
TOOELE VALLEY  PTCLDY    46  39  76 CALM      30.28F
WENDOVER       CLOUDY    40  33  76 W3        30.29F
HEBER CITY       N/A     30  30 100 CALM      30.36S
WEST JORDAN    PTCLDY    50  41  71 S16       30.30F

$$

UTZ011>015-024>027-231300-

CENTRAL/NORTHEAST UTAH

CITY           SKY/WX    TMP DP  RH WIND       PRES   REMARKS
PROVO AIRPORT  PTCLDY    36  33  89 E5        30.33F WCI  32
MOAB/CANYONLAN MOCLDY    32  18  56 CALM      30.35F
DELTA          MOCLDY    32  32 100 CALM      30.33S
PRICE          PTCLDY    35  31  85 N5        30.38S WCI  31
ROOSEVELT      CLOUDY    32  28  86 CALM      30.38F
VERNAL         CLOUDY    34  29  82 W5        30.36S WCI  30

$$

UTZ013>016-019>022-027-231300-

SOUTHERN UTAH

CITY           SKY/WX    TMP DP  RH WIND       PRES   REMARKS
BRYCE CANYON   PTCLDY    28  25  88 W9        30.47F WCI  19
CEDAR CITY     PTCLDY    29  27  92 S5        30.35F WCI  24
MILFORD        PTCLDY    31  28  89 SW9       30.34F WCI  23
ST GEORGE      MOSUNNY   45  30  55 CALM      30.29F
HANKSVILLE     MOCLDY    30  18  59 CALM      30.39S
BLANDING         N/A     41  31  68 N9        30.44S

$$

REGIONAL REPORTS     COLORADO/ARIZONA

CITY           SKY/WX    TMP DP  RH WIND       PRES   REMARKS
CRAIG, CO      CLOUDY    27  24  89 CALM      30.39F
GRAND JUNCTION CLOUDY    39  33  79 E5        30.38S
RIFLE, CO      CLOUDY    31  29  92 CALM      30.42F
MONTROSE, CO   CLOUDY    33  29  85 S9        30.43F WCI  25
CORTEZ, CO     CLOUDY    29  24  82 E5        30.38S WCI  24
COLORADO CITY    N/A     34  30  86 CALM      30.38S
PAGE, AZ       PTCLDY    44  29  55 CALM      30.35F
GRAND CANYON   PTCLDY    23  20  88 CALM      30.42F
KINGMAN, AZ    CLEAR     44  27  51 CALM      30.24S
FLAGSTAFF, AZ  PTCLDY    26  21  81 NE3       30.43S

$$

REGIONAL REPORTS    NEVADA/IDAHO/WYOMING

CITY           SKY/WX    TMP DP  RH WIND       PRES   REMARKS
LAS VEGAS, NV  PTCLDY    58  37  45 CALM      30.19S
ELY, NY        MOCLDY    36  28  73 S7        30.36F WCI  30
ELKO, NV       MOCLDY    39  36  89 NE6       30.29F WCI  35
POCATELLO, ID  CLOUDY    34  34 100 CALM      30.23F FOG
BURLEY, ID     MOCLDY    45  39  79 N6        30.17F
FORT BRIDGER,    N/A     44  35  70 W8        30.39S
EVANSTON, WY   CLOUDY    41  36  82 SW10      30.37F
ROCK SPRINGS,  CLOUDY    40  34  79 W13       30.35S WCI  32
KEMMERER, WY   CLOUDY    34  32  93 NE3       30.36F

$$



USA.gov is the U.S. government's official web portal to all federal, state and local government web resources and services.